This is the latest recevied weather packets stored in our database for station/object N5GC-2. If no packets are shown the sender has not sent any weather packets the latest 10 day(s).
| Time | Temp. | Humidity | Pressure | Rain* | Wind** | Luminosity | Snow |
|---|---|---|---|---|---|---|---|
| 1777747520 | 22.22° C | 38% | - | 0 mm | - | - | - |
| 1777746913 | 21.67° C | 36% | - | 0 mm | - | - | - |
| 1777746000 | 21.67° C | 32% | - | 0 mm | - | - | - |
| 1777745698 | 21.67° C | 37% | - | 0 mm | - | - | - |
| 1777745397 | 21.11° C | 37% | - | 0 mm | - | - | - |
| 1777745093 | 21.11° C | 37% | - | 0 mm | - | - | - |
| 1777744484 | 21.11° C | 35% | - | 0 mm | - | - | - |
| 1777744181 | 20.56° C | 36% | - | 0 mm | - | - | - |
| 1777743878 | 20.56° C | 38% | - | 0 mm | - | - | - |
| 1777743271 | 21.11° C | 38% | - | 0 mm | - | - | - |
| 1777742970 | 21.67° C | 38% | - | 0 mm | - | - | - |
| 1777742666 | 22.78° C | 36% | - | 0 mm | - | - | - |
| 1777742362 | 22.78° C | 35% | - | 0 mm | - | - | - |
| 1777742058 | 22.78° C | 32% | - | 0 mm | - | - | - |
| 1777741148 | 22.22° C | 32% | - | 0 mm | - | - | - |
| 1777739935 | 21.67° C | 35% | - | 0 mm | - | - | - |
| 1777739329 | 21.67° C | 34% | - | 0 mm | - | - | - |
| 1777739026 | 21.11° C | 38% | - | 0 mm | - | - | - |
| 1777738723 | 21.11° C | 35% | - | 0 mm | - | - | - |
| 1777738117 | 21.11° C | 34% | - | 0 mm | - | - | - |
| 1777737816 | 21.11° C | 37% | - | 0 mm | - | - | - |
| 1777737514 | 21.11° C | 35% | - | 0 mm | - | - | - |
| 1777736907 | 20.56° C | 38% | - | 0 mm | - | - | - |
| 1777736293 | 20° C | 41% | - | 0 mm | - | - | - |
| 1777735990 | 19.44° C | 38% | - | 0 mm | - | - | - |
* Rain latest hour (hover to see other rain measurements)
** Current wind speed in m/s (hover to see current wind gust speed)